カタログに戻る

STARLINK-30221

運用中通信VLEO
NORAD 57418·PAYLOAD·🇺🇸 United States

打ち上げ Jul 20, 2023 から Vandenberg Space Force Base

Loading…

次のパス (今後24時間)

TLE

最新Source: CelesTrak SupGP

元期: Sep 15, 2026, 00:40 UTC

1 57418C 23102Q   26258.02826389  .00463870  00000+0  59472-2 0  2588
2 57418  42.9992 261.2000 0001608 277.7393  73.9598 15.58022949    13

AllMySatでSTARLINK-30221をリアルタイム追跡

Download on the App Store